[[{"header":{"parameterUnit":"m.s-1","parameterCategory":1,"la1":30.2991,"la2":30.254,"lo1":-89.0895,"lo2":-89.0444,"dy":0.0017,"dx":0.0017,"nx":28,"ny":28,"refTime":"2024-12-06T03:00:00:Z","depth":0,"parameterNumber":2,"parameterNumberName":"U-component_of_WINDS"},"data":[0,0,0,0,0,0,0,0,0,0,0,0,0,0,0,0,0,0,0,0,0,0,0,0,0,0,0,0,0,0,0,0,0,0,0,0,0,0,0,0,0,0,0,0,0,0,0,0,0,0,0,0,0,0,0,0,0,0,-2.8177,-2.8178,0,-2.8232,-2.8233,-2.8234,-2.814,-2.8137,-2.8134,-2.8131,-2.8189,-2.8193,-2.8197,0,0,0,0,0,0,0,0,0,0,0,0,0,-2.799,-2.7994,-2.8177,-2.8178,-2.8178,-2.8232,-2.8233,-2.8234,-2.8141,-2.8137,-2.8133,-2.813,-2.8187,-2.8192,-2.8198,0,0,0,0,0,0,0,0,0,0,0,0,0,-2.8061,-2.7995,-2.8177,-2.8138,-2.8136,-2.8232,-2.8233,-2.8234,-2.8142,-2.8137,-2.8132,-2.8128,-2.8185,-2.8192,-2.8198,-2.8335,0,0,-2.8219,-2.8222,0,0,0,0,0,0,0,0,-2.8057,-2.8068,-2.8143,-2.8141,-2.8138,-2.8175,-2.8188,-2.8268,-2.8143,-2.8139,-2.8131,-2.8125,-2.8188,-2.8194,-2.8215,-2.8338,-2.834,-2.822,-2.8224,-2.8227,-2.8229,0,0,0,0,0,0,0,-2.8052,-2.8065,-2.8199,-2.8145,-2.8141,-2.8118,-2.8123,-2.8203,-2.819,-2.8139,-2.8133,-2.8141,-2.8185,-2.8209,-2.8216,-2.8341,-2.8219,-2.8225,-2.823,-2.8232,-2.8578,-2.8583,0,0,0,0,0,0,-2.8052,-2.8061,-2.8197,-2.82,-2.8085,-2.8125,-2.8131,-2.8168,-2.8189,-2.8187,-2.8145,-2.8136,-2.8199,-2.8208,-2.8217,-2.8379,-2.8227,-2.8233,-2.8237,-2.8573,-2.8579,-2.8585,0,0,0,0,0,0,-2.8048,-2.8065,-2.8195,-2.8129,-2.8144,-2.8134,-2.8176,-2.8171,-2.8194,-2.8192,-2.819,-2.8171,-2.8196,-2.8208,-2.8306,-2.8379,-2.8236,-2.8242,-2.8567,-2.8575,-2.8582,-2.8703,0,0,0,0,0,0,-2.8043,-2.8064,-2.8116,-2.8131,-2.8148,-2.8284,-2.818,-2.8176,-2.8206,-2.8196,-2.8216,-2.8215,-2.8193,-2.8297,-2.8313,-2.8386,-2.8247,-2.856,-2.857,-2.8579,-2.8692,-2.8714,-2.8732,0,0,0,0,0,-2.8037,-2.8149,-2.812,-2.8137,-2.8213,-2.8288,-2.8298,-2.827,-2.8212,-2.8265,-2.8263,-2.8214,-2.8368,-2.8308,-2.8325,-2.8401,-2.8556,-2.8568,-2.8579,-2.8683,-2.8709,-2.8731,0,0,0,0,0,0,-2.8144,-2.815,-2.8118,-2.8238,-2.8263,-2.8272,-2.8338,-2.8299,-2.8341,-2.833,-2.8293,-2.8299,-2.8405,-2.8412,-2.8345,-2.8534,-2.8452,-2.8468,-2.8526,-2.855,-2.857,-2.8567,-2.8253,0,0,0,0,0,-2.8181,-2.8242,-2.8244,-2.8349,-2.8363,-2.8349,-2.838,-2.8356,-2.8381,-2.8392,-2.8397,-2.8424,-2.8477,-2.8514,-2.8564,-2.8692,-2.8695,-2.8753,-2.8772,-2.8789,-2.8803,-2.8871,-2.8897,-2.8623,-2.8623,-2.8622,0,0,-2.8259,-2.827,-2.8311,-2.8371,-2.8388,-2.8451,-2.8358,-2.843,-2.8476,-2.8403,-2.8496,-2.8501,-2.8528,-2.8642,-2.8692,-2.8651,-2.8879,-2.8804,-2.8817,-2.8822,-2.8886,-2.8912,-2.8935,-2.8631,-2.8629,-2.8628,0,0,-2.8434,-2.8448,-2.8538,-2.8556,-2.8582,-2.8571,-2.8593,-2.8608,-2.8608,-2.8701,-2.8647,-2.8701,-2.8795,-2.8816,-2.8839,-2.902,-2.8977,-2.9037,-2.9141,-2.9208,-2.923,-2.9249,-2.9313,-2.9337,-2.9051,-2.9051,-2.9051,0,-2.8528,-2.8622,-2.8589,-2.8664,-2.8691,-2.8626,-2.8716,-2.8736,-2.8777,-2.8798,-2.8751,-2.8867,-2.888,-2.8998,-2.9042,-2.9062,-2.9085,-2.9035,-2.9229,-2.9248,-2.9265,-2.9326,-2.9351,-2.9058,-2.9058,-2.9057,-2.9056,0,-2.8736,-2.8802,-2.8871,-2.8912,-2.8947,-2.9029,-2.9008,-2.9048,-2.902,-2.9014,-2.9109,-2.9122,-2.9173,-2.9198,-2.9173,-2.9312,-2.9286,-2.9235,-2.9152,-2.9299,-2.9356,-2.9379,-2.9069,-2.9066,-2.9064,-2.9062,0,0,-2.8983,-2.9003,-2.9029,-2.9046,-2.907,-2.912,-2.9198,-2.9247,-2.9282,-2.9312,-2.9377,-2.9457,-2.9409,-2.9435,-2.941,-2.9469,-2.9611,-2.941,-2.941,-2.9447,-2.9766,-2.9805,-2.9833,-2.9581,-2.9586,-2.9589,-2.9763,0,-2.9157,-2.9293,-2.9264,-2.9398,-2.9457,-2.9395,-2.9463,-2.9485,-2.9481,-2.953,-2.9525,-2.9582,-2.9515,-2.953,-2.9585,-2.9582,-2.9674,-2.9569,-2.9642,-2.9645,-2.9639,-2.9863,-2.9905,-3.0069,-2.9786,-2.9789,-2.9792,0,-2.938,-2.9418,-2.9557,-2.957,-2.9594,-2.9656,-2.9698,-2.9746,-2.9768,-2.9761,-2.9789,-2.9753,-2.983,-2.9745,-2.9851,-2.9779,-2.9807,-2.981,-2.9815,-2.9823,-2.9729,-2.9877,-3.0121,-3.0146,-2.9827,-2.9824,-2.9821,0,-2.9547,-2.9632,-2.9726,-2.9743,-2.976,-2.9805,-2.9814,-2.9831,-2.9862,-2.9899,-2.9918,-2.9963,-2.9989,-3.0024,-3.0,-2.9941,-3.011,-3.0023,-3.0106,-3.0107,-3.0146,-3.0144,-3.0399,-3.0162,-3.0162,-3.0161,-3.0161,0,-2.9746,-2.9834,-2.9801,-2.986,-2.9956,-2.9921,-3.0017,-3.0018,-3.0034,-3.0091,-3.0039,-3.0094,-3.0059,-3.011,-3.0092,-3.0182,-3.0194,-3.019,-3.0184,-3.0195,-3.0196,-3.0214,-3.0203,-3.0168,-3.0166,-3.0165,-3.0164,0,-2.9949,-2.9931,-3.003,-3.0037,-3.0041,-3.0111,-3.0117,-3.0171,-3.0161,-3.0234,-3.0249,-3.0235,-3.0292,-3.0272,-3.0333,-3.0321,-3.0436,-3.0415,-3.0429,-3.0424,-3.0508,-3.0501,-3.0785,-3.0821,-3.056,-3.0562,-3.0564,0,-3.0078,-3.0144,-3.0158,-3.0192,-3.0205,-3.0261,-3.0292,-3.0259,-3.0293,-3.0323,-3.0373,-3.0426,-3.0467,-3.0561,-3.0556,-3.0603,-3.0583,-3.0679,-3.059,-3.0599,-3.0586,-3.0582,-3.0589,-3.0698,-3.0701,-3.0703,-3.0705,0,-3.0309,-3.0297,-3.0343,-3.0387,-3.0425,-3.0458,-3.0486,-3.0517,-3.0485,-3.0526,-3.0584,-3.0616,-3.0678,-3.0731,-3.0773,-3.0781,-3.0739,-3.0733,-3.0755,-3.0768,-3.0773,-3.0772,-3.0479,-3.0727,-3.0725,-3.0724,-3.0722,-3.0721,-3.048,-3.0535,-3.0554,-3.0607,-3.0624,-3.0651,-3.0702,-3.0698,-3.0746,-3.0794,-3.0771,-3.0839,-3.0857,-3.0908,-3.0923,-3.0974,-3.0937,-3.0969,-3.0977,-3.0985,-3.0997,-3.0764,-3.0981,-3.0981,-3.098,-3.098,-3.0979,0,-3.0709,-3.0717,-3.0766,-3.0807,-3.0848,-3.0803,-3.0831,-3.0869,-3.0929,-3.095,-3.0991,-3.1057,-3.1108,-3.1106,-3.1153,-3.1194,-3.1176,-3.1208,-3.1205,-3.1208,-3.1027,-3.1004,-3.1222,-3.1222,-3.1222,-3.1222,-3.1222,-3.1222,-3.0833,-3.0924,-3.0914,-3.1012,-3.1019,-3.1085,-3.1105,-3.1129,-3.1145,-3.1222,-3.1263,-3.1261,-3.1273,-3.132,-3.1364,-3.1362,-3.1382,-3.1422,-3.1413,-3.1244,-3.122,-3.1197,-3.1176,-3.1426,-3.1426,-3.1589,-3.159,-3.1591]},{"header":{"parameterUnit":"m.s-1","parameterCategory":1,"la1":30.2991,"la2":30.254,"lo1":-89.0895,"lo2":-89.0444,"dy":0.0017,"dx":0.0017,"nx":28,"ny":28,"refTime":"2024-12-06T03:00:00:Z","depth":0,"parameterNumber":3,"parameterNumberName":"V-component_of_WINDS"},"data":[0,0,0,0,0,0,0,0,0,0,0,0,0,0,0,0,0,0,0,0,0,0,0,0,0,0,0,0,0,0,0,0,0,0,0,0,0,0,0,0,0,0,0,0,0,0,0,0,0,0,0,0,0,0,0,0,0,0,-5.7713,-5.7713,0,-5.7788,-5.7788,-5.7789,-5.7698,-5.7695,-5.7692,-5.7688,-5.7761,-5.7766,-5.7771,0,0,0,0,0,0,0,0,0,0,0,0,0,-5.7484,-5.7489,-5.7712,-5.7713,-5.7714,-5.7788,-5.7789,-5.779,-5.7699,-5.7695,-5.7691,-5.7687,-5.7759,-5.7765,-5.7771,0,0,0,0,0,0,0,0,0,0,0,0,0,-5.7574,-5.749,-5.7712,-5.7678,-5.7676,-5.7787,-5.7789,-5.779,-5.77,-5.7695,-5.769,-5.7685,-5.7757,-5.7764,-5.7772,-5.7919,0,0,-5.7795,-5.7798,0,0,0,0,0,0,0,0,-5.7569,-5.7582,-5.7682,-5.7681,-5.7678,-5.7728,-5.7734,-5.7833,-5.7701,-5.769,-5.7688,-5.7682,-5.7754,-5.7761,-5.7786,-5.7923,-5.7926,-5.7796,-5.78,-5.7803,-5.7806,0,0,0,0,0,0,0,-5.7563,-5.7578,-5.7742,-5.7684,-5.7681,-5.7657,-5.7664,-5.7753,-5.7749,-5.7691,-5.7685,-5.7695,-5.7752,-5.7779,-5.7787,-5.7927,-5.7795,-5.7802,-5.7807,-5.781,-5.8185,-5.8191,0,0,0,0,0,0,-5.7561,-5.7574,-5.774,-5.7744,-5.761,-5.7665,-5.7673,-5.7717,-5.7748,-5.7748,-5.7699,-5.769,-5.7769,-5.7778,-5.7789,-5.7963,-5.7803,-5.7811,-5.7815,-5.818,-5.8187,-5.8192,0,0,0,0,0,0,-5.7557,-5.7577,-5.7737,-5.7657,-5.7676,-5.7674,-5.7725,-5.7721,-5.7749,-5.7754,-5.7753,-5.7728,-5.7765,-5.7779,-5.7887,-5.7964,-5.7814,-5.7821,-5.8174,-5.8182,-5.819,-5.8312,0,0,0,0,0,0,-5.755,-5.7576,-5.7633,-5.7659,-5.768,-5.7836,-5.773,-5.7727,-5.7763,-5.7752,-5.7781,-5.7781,-5.7762,-5.7877,-5.7895,-5.7972,-5.7827,-5.8167,-5.8177,-5.8187,-5.8301,-5.8323,-5.8342,0,0,0,0,0,-5.7543,-5.7664,-5.7637,-5.7657,-5.7753,-5.784,-5.7852,-5.7829,-5.777,-5.7826,-5.7829,-5.778,-5.7953,-5.7889,-5.7908,-5.7989,-5.8162,-5.8174,-5.8186,-5.8291,-5.8318,-5.8341,0,0,0,0,0,0,-5.7646,-5.7667,-5.7637,-5.7771,-5.7805,-5.7825,-5.7896,-5.7859,-5.7909,-5.7897,-5.7864,-5.7872,-5.7987,-5.7999,-5.7927,-5.8132,-5.8047,-5.8064,-5.812,-5.8146,-5.8166,-5.8161,-5.7833,0,0,0,0,0,-5.7685,-5.7756,-5.7769,-5.7886,-5.7905,-5.7898,-5.7935,-5.7914,-5.7947,-5.7961,-5.7972,-5.8004,-5.8065,-5.8106,-5.8163,-5.8302,-5.8305,-5.8366,-5.8387,-5.8404,-5.8418,-5.8491,-5.8517,-5.8233,-5.8232,-5.8232,0,0,-5.7764,-5.7785,-5.7831,-5.7907,-5.7931,-5.8003,-5.791,-5.7991,-5.8044,-5.7972,-5.8076,-5.8085,-5.8119,-5.8243,-5.8298,-5.8256,-5.8498,-5.8419,-5.8433,-5.8438,-5.8506,-5.8533,-5.8557,-5.8241,-5.8239,-5.8238,0,0,-5.7947,-5.7971,-5.807,-5.8095,-5.8133,-5.8127,-5.8151,-5.8177,-5.818,-5.8284,-5.8231,-5.8292,-5.8399,-5.8425,-5.8452,-5.8643,-5.8599,-5.8662,-5.877,-5.884,-5.8863,-5.8882,-5.8949,-5.8974,-5.8677,-5.8677,-5.8677,0,-5.8041,-5.815,-5.8125,-5.821,-5.8243,-5.8183,-5.8282,-5.8307,-5.8361,-5.8385,-5.8337,-5.8469,-5.8487,-5.8616,-5.8662,-5.8687,-5.8711,-5.8659,-5.8862,-5.8881,-5.8899,-5.8962,-5.8988,-5.8685,-5.8684,-5.8683,-5.8682,0,-5.8263,-5.834,-5.8415,-5.8469,-5.8512,-5.8603,-5.8589,-5.8635,-5.861,-5.8609,-5.8713,-5.8734,-5.8793,-5.8821,-5.8798,-5.8946,-5.8919,-5.8867,-5.8781,-5.8934,-5.8993,-5.9017,-5.8695,-5.8692,-5.869,-5.8688,0,0,-5.8514,-5.8553,-5.8581,-5.8604,-5.864,-5.8697,-5.8785,-5.8844,-5.8883,-5.8921,-5.8992,-5.9083,-5.9035,-5.9066,-5.9045,-5.9107,-5.9255,-5.9047,-5.9047,-5.9084,-5.9417,-5.9455,-5.9484,-5.9226,-5.9231,-5.9234,-5.9414,0,-5.8696,-5.8849,-5.8828,-5.8975,-5.9043,-5.8986,-5.9062,-5.9091,-5.9092,-5.9149,-5.9148,-5.9213,-5.9146,-5.9164,-5.9223,-5.9225,-5.9321,-5.9211,-5.929,-5.9293,-5.9283,-5.9515,-5.9556,-5.9725,-5.9437,-5.9441,-5.9444,0,-5.8929,-5.8977,-5.9131,-5.9156,-5.9183,-5.9252,-5.9304,-5.9359,-5.939,-5.9386,-5.942,-5.9387,-5.9472,-5.9385,-5.95,-5.9426,-5.9457,-5.9462,-5.9468,-5.9474,-5.9377,-5.9526,-5.9778,-5.9803,-5.948,-5.9477,-5.9474,0,-5.9095,-5.9198,-5.9303,-5.9325,-5.9356,-5.9405,-5.942,-5.9446,-5.9483,-5.9527,-5.9549,-5.9603,-5.9632,-5.9673,-5.9653,-5.9593,-5.9772,-5.9684,-5.9769,-5.977,-5.9809,-5.9807,-6.0069,-5.9831,-5.983,-5.983,-5.9829,0,-5.93,-5.9396,-5.9378,-5.9442,-5.9547,-5.9521,-5.9625,-5.9632,-5.9656,-5.9719,-5.9672,-5.9732,-5.9704,-5.9761,-5.9747,-5.9844,-5.9857,-5.9855,-5.9849,-5.9859,-5.9859,-5.9878,-5.9865,-5.9837,-5.9835,-5.9834,-5.9833,0,-5.9503,-5.9495,-5.9605,-5.9626,-5.9633,-5.9709,-5.9726,-5.9785,-5.9781,-5.9862,-5.9879,-5.9874,-5.9938,-5.9924,-5.9995,-5.9984,-6.0106,-6.0086,-6.0096,-6.0091,-6.0177,-6.0168,-6.0459,-6.0495,-6.0235,-6.0238,-6.024,0,-5.9634,-5.9707,-5.9735,-5.9775,-5.9794,-5.9859,-5.9895,-5.9871,-5.9911,-5.9951,-6.0005,-6.0066,-6.0114,-6.022,-6.0221,-6.0274,-6.0255,-6.0353,-6.0262,-6.0269,-6.0254,-6.025,-6.0256,-6.0371,-6.0374,-6.0376,-6.0378,0,-5.9867,-5.9859,-5.9915,-5.997,-6.0016,-6.0057,-6.0093,-6.0128,-6.0107,-6.0153,-6.022,-6.0257,-6.0329,-6.039,-6.0439,-6.0451,-6.0411,-6.0407,-6.0429,-6.0438,-6.0441,-6.0439,-6.0144,-6.04,-6.0398,-6.0396,-6.0395,-6.0394,-6.0037,-6.0099,-6.0128,-6.0191,-6.0217,-6.0252,-6.0308,-6.0312,-6.0368,-6.0426,-6.0407,-6.0483,-6.0509,-6.0571,-6.059,-6.0647,-6.061,-6.0642,-6.065,-6.0659,-6.0669,-6.0432,-6.0656,-6.0655,-6.0654,-6.0654,-6.0653,0,-6.0267,-6.0283,-6.0342,-6.0395,-6.0444,-6.0403,-6.0441,-6.0484,-6.0552,-6.0581,-6.0629,-6.0704,-6.0762,-6.0768,-6.0821,-6.0866,-6.0849,-6.0881,-6.0877,-6.088,-6.0699,-6.0674,-6.0894,-6.0894,-6.0894,-6.0894,-6.0894,-6.0894,-6.0392,-6.0494,-6.0489,-6.0601,-6.0615,-6.069,-6.0715,-6.0746,-6.0769,-6.0856,-6.0905,-6.0908,-6.0927,-6.0982,-6.1032,-6.1032,-6.1054,-6.1093,-6.1086,-6.0917,-6.0893,-6.087,-6.0846,-6.1098,-6.1098,-6.1261,-6.1263,-6.1264]}]]